This demonstration page uses our WeatherBlox Daily Observations layout. Learn more.

Left ArrowRight Arrow

Hourly Observations for January 28, 2017

Temp ( °F °C ) Dew Point ( °F °C ) Humidity (%) Winds ( mph kmh ) Pressure ( in mb ) Visibility ( mi km ) Precip ( " mm )
12:15 am 00:15 Cloudy 27 -3 21 -6 80 80 W 14 22 29.94 1014 10 16 N/A
12:36 am 00:36 Mostly Cloudy 27 -3 19 -7 74 74 WSW 15 24 29.94 1014 10 16 N/A
12:56 am 00:56 Partly Cloudy 27 -3 19 -7 74 74 WSW 13 20 29.94 1014 10 16 N/A
1:16 am 01:16 Partly Cloudy 25 -4 19 -7 80 80 WSW 13 20 29.94 1014 10 16 N/A
1:36 am 01:36 Clear 25 -4 19 -7 80 80 WSW 13 20 29.94 1014 10 16 N/A
1:56 am 01:56 Clear 25 -4 19 -7 80 80 SW 9 15 29.91 1013 10 16 N/A
2:16 am 02:16 Clear 25 -4 19 -7 80 80 SW 10 17 29.91 1013 10 16 N/A
2:36 am 02:36 Clear 25 -4 19 -7 80 80 SW 9 15 29.91 1013 10 16 N/A
2:56 am 02:56 Clear 25 -4 19 -7 80 80 SW 9 15 29.91 1013 10 16 N/A
3:16 am 03:16 Clear 25 -4 19 -7 80 80 SW 10 17 29.91 1013 10 16 N/A
3:36 am 03:36 Clear 25 -4 19 -7 80 80 WSW 12 19 29.91 1013 10 16 N/A
3:56 am 03:56 Partly Cloudy 25 -4 19 -7 80 80 SW 8 13 29.91 1013 10 16 N/A
4:16 am 04:16 Partly Cloudy 25 -4 19 -7 80 80 SW 10 17 29.91 1013 10 16 N/A
4:36 am 04:36 Mostly Cloudy 25 -4 19 -7 80 80 SW 9 15 29.88 1012 10 16 N/A
4:55 am 04:55 Cloudy 25 -4 19 -7 80 80 SW 8 13 29.88 1012 10 16 N/A
5:16 am 05:16 Cloudy 25 -4 19 -7 80 80 SW 9 15 29.88 1012 10 16 N/A
5:36 am 05:36 Mostly Cloudy 23 -5 19 -7 86 86 SW 10 17 29.88 1012 10 16 N/A
5:55 am 05:55 Partly Cloudy 23 -5 19 -7 86 86 SW 10 17 29.88 1012 10 16 N/A
6:16 am 06:16 Clear 23 -5 19 -7 86 86 SW 9 15 29.88 1012 10 16 N/A
6:36 am 06:36 Clear 23 -5 19 -7 86 86 SW 8 13 29.88 1012 10 16 N/A
6:55 am 06:55 Partly Cloudy 23 -5 19 -7 86 86 SW 8 13 29.88 1012 10 16 N/A
7:16 am 07:16 Mostly Cloudy 23 -5 19 -7 86 86 SW 10 17 29.88 1012 10 16 N/A
7:36 am 07:36 Mostly Cloudy 23 -5 19 -7 86 86 SW 9 15 29.88 1012 10 16 N/A
7:56 am 07:56 Cloudy 23 -5 21 -6 93 93 SW 8 13 29.88 1012 10 16 N/A
8:16 am 08:16 Partly Cloudy 23 -5 19 -7 86 86 SW 9 15 29.88 1012 10 16 N/A
8:35 am 08:35 Sunny 23 -5 21 -6 93 93 SSW 7 11 29.88 1012 7 11 N/A
8:56 am 08:56 Sunny 25 -4 21 -6 86 86 SSW 8 13 29.88 1012 7 11 N/A
9:16 am 09:16 Partly Cloudy 27 -3 21 -6 80 80 SW 9 15 29.88 1012 10 16 N/A
9:35 am 09:35 Mostly Cloudy 27 -3 21 -6 80 80 WSW 9 15 29.88 1012 10 16 N/A
9:56 am 09:56 Cloudy 27 -3 21 -6 80 80 W 17 28 29.88 1012 10 16 N/A
10:16 am 10:16 Cloudy 27 -3 21 -6 80 80 W 12 19 29.88 1012 7 11 N/A
10:35 am 10:35 Cloudy 27 -3 23 -5 86 86 WSW 13 20 29.88 1012 7 11 N/A
10:56 am 10:56 Cloudy 27 -3 23 -5 86 86 W 13 20 29.88 1012 7 11 N/A
11:16 am 11:16 Cloudy 27 -3 23 -5 86 86 WSW 15 24 29.88 1012 10 16 N/A
11:35 am 11:35 Cloudy 27 -3 23 -5 86 86 W 14 22 29.88 1012 10 16 N/A
11:56 am 11:56 Cloudy 27 -3 23 -5 86 86 W 14 22 29.88 1012 7 11 N/A
12:16 pm 12:16 Cloudy 27 -3 23 -5 86 86 W 16 26 29.88 1012 7 11 N/A
12:35 pm 12:35 Cloudy 27 -3 23 -5 86 86 W 14 22 29.85 1011 7 11 N/A
12:56 pm 12:56 Cloudy 27 -3 23 -5 86 86 WSW 13 20 29.85 1011 7 11 N/A
1:16 pm 13:16 Cloudy 28 -2 23 -5 80 80 W 14 22 29.85 1011 7 11 N/A
1:35 pm 13:35 Cloudy 28 -2 25 -4 86 86 W 10 17 29.85 1011 7 11 N/A
1:56 pm 13:56 Cloudy 28 -2 25 -4 86 86 WSW 12 19 29.83 1010 10 16 N/A
2:16 pm 14:16 Cloudy 28 -2 25 -4 86 86 WSW 13 20 29.85 1011 10 16 N/A
2:36 pm 14:36 Cloudy 30 -1 25 -4 80 80 WSW 12 19 29.83 1010 7 11 N/A
2:56 pm 14:56 Cloudy 30 -1 25 -4 80 80 WSW 15 24 29.83 1010 10 16 N/A
3:16 pm 15:16 Cloudy 30 -1 25 -4 80 80 WSW 10 17 29.83 1010 10 16 N/A
3:36 pm 15:36 Cloudy 30 -1 25 -4 80 80 W 14 22 29.83 1010 10 16 N/A
3:56 pm 15:56 Cloudy 30 -1 25 -4 80 80 W 15 24 29.83 1010 10 16 N/A
4:16 pm 16:16 Cloudy 30 -1 25 -4 80 80 W 14 22 29.83 1010 10 16 N/A
4:36 pm 16:36 Cloudy 30 -1 25 -4 80 80 W 10 17 29.83 1010 10 16 N/A
4:56 pm 16:56 Cloudy 30 -1 25 -4 80 80 W 12 19 29.85 1011 10 16 N/A
5:15 pm 17:15 Cloudy 30 -1 25 -4 80 80 WSW 13 20 29.85 1011 10 16 N/A
5:36 pm 17:36 Cloudy 30 -1 25 -4 80 80 WSW 12 19 29.85 1011 10 16 N/A
5:56 pm 17:56 Cloudy 30 -1 25 -4 80 80 W 16 26 29.85 1011 10 16 N/A
6:15 pm 18:15 Cloudy 30 -1 25 -4 80 80 W 14 22 29.85 1011 10 16 N/A
6:36 pm 18:36 Cloudy 30 -1 25 -4 80 80 WSW 10 17 29.88 1012 10 16 N/A
6:56 pm 18:56 Cloudy 32 undefined 25 -4 75 75 W 13 20 29.88 1012 10 16 N/A
7:16 pm 19:16 Cloudy 32 undefined 25 -4 75 75 W 13 20 29.88 1012 10 16 N/A
7:36 pm 19:36 Cloudy 32 undefined 25 -4 75 75 W 13 20 29.88 1012 10 16 N/A
7:56 pm 19:56 Cloudy 32 undefined 25 -4 75 75 W 14 22 29.88 1012 10 16 N/A
8:16 pm 20:16 Cloudy 32 undefined 25 -4 75 75 W 13 20 29.88 1012 10 16 N/A
8:36 pm 20:36 Cloudy 32 undefined 27 -3 80 80 W 10 17 29.88 1012 10 16 N/A
8:56 pm 20:56 Cloudy 32 undefined 27 -3 80 80 W 9 15 29.88 1012 10 16 N/A
9:16 pm 21:16 Cloudy 32 undefined 27 -3 80 80 W 9 15 29.88 1012 10 16 N/A
9:36 pm 21:36 Cloudy 32 undefined 25 -4 75 75 WNW 14 22 29.88 1012 10 16 N/A
9:56 pm 21:56 Cloudy 30 -1 25 -4 80 80 WNW 10 17 29.88 1012 10 16 N/A
10:16 pm 22:16 Cloudy 30 -1 25 -4 80 80 WNW 10 17 29.88 1012 10 16 N/A
10:36 pm 22:36 Cloudy 30 -1 25 -4 80 80 W 9 15 29.88 1012 10 16 N/A
10:55 pm 22:55 Cloudy 30 -1 25 -4 80 80 W 9 15 29.88 1012 10 16 N/A
11:16 pm 23:16 Cloudy 30 -1 25 -4 80 80 W 8 13 29.88 1012 10 16 N/A
11:36 pm 23:36 Cloudy 30 -1 25 -4 80 80 W 8 13 29.88 1012 10 16 N/A
11:55 pm 23:55 Cloudy 30 -1 25 -4 80 80 W 6 9 29.88 1012 10 16 N/A

Powered by AerisWeather